Comanche, TX

2:26 AM CST on January 16, 2018 (GMT -0600)
Comanche

Weather History for KMKN - November, 2012

Change the Weather History Date:

Friday, November 9, 2012

  Actual Average (KSEP) Record (KSEP)
Temperature  
Mean Temperature 72 °F -  
Max Temperature 82 °F 67 °F 89 °F (1980)
Min Temperature 62 °F 47 °F 25 °F (1960)
Cooling Degree Days 7    
Growing Degree Days 22 (Base 50)    
Moisture  
Dew Point 55 °F    
Average Humidity 59    
Maximum Humidity 88    
Minimum Humidity 30    
Precipitation  
Precipitation 0.00 in - - ()
Sea Level Pressure  
Sea Level Pressure 29.97 in    
Wind  
Wind Speed 14 mph (South)    
Max Wind Speed 24 mph    
Max Gust Speed 33 mph    
Visibility 10 miles    
Events      
Averages and records for this station are not official NWS values.
T = Trace of Precipitation, MM = Missing Value Source: NWS Daily Summary

Daily Weather History Graph

Daily Weather History Graph

Search for Another Location

Airport or City:

Trip Planner

Search our weather history database for the weather conditions in past years. The results will help you decide how hot, cold, wet, or windy it might be!

Date:

Astronomy

Nov. 09, 2012 Rise Set
Actual Time 6:58 AM CST 5:38 PM CST
Civil Twilight 6:32 AM CST 6:03 PM CST
Nautical Twilight 6:03 AM CST 6:32 PM CST
Astronomical Twilight 5:34 AM CST 7:01 PM CST
Moon 2:14 AM CST (11/9) 2:37 PM CST (11/9)
Length of Visible Light 11h 31m
Length of Day
10h 39m
Waning Crescent, 23% of the Moon is Illuminated
Nov 9
Waning Crescent
Nov 13
New
Nov 20
First Quarter
Nov 28
Full
Dec 6
Last Quarter

Hourly Weather History & Observations

Time (CST) Temp. Dew Point Humidity Pressure Visibility Wind Dir Wind Speed Gust Speed Precip Events Conditions
12:15 AM 66.2 °F 55.4 °F 68% 30.00 in 10.0 mi South 11.5 mph 23.0 mph N/A   Clear
12:35 AM 64.4 °F 57.2 °F 77% 30.00 in 10.0 mi South 12.7 mph 19.6 mph N/A   Clear
12:55 AM 64.4 °F 59.0 °F 83% 30.00 in 10.0 mi South 12.7 mph 19.6 mph N/A   Clear
1:15 AM 64.4 °F 59.0 °F 83% 30.00 in 10.0 mi South 11.5 mph 19.6 mph N/A   Clear
1:35 AM 64.4 °F 59.0 °F 83% 29.99 in 10.0 mi South 13.8 mph 19.6 mph N/A   Scattered Clouds
2:15 AM 64.4 °F 59.0 °F 83% 29.99 in 10.0 mi South 10.4 mph 19.6 mph N/A   Clear
2:35 AM 64.4 °F 59.0 °F 83% 30.00 in 10.0 mi South 9.2 mph 16.1 mph N/A   Mostly Cloudy
2:55 AM 64.4 °F 59.0 °F 83% 29.99 in 10.0 mi South 10.4 mph - N/A   Overcast
3:15 AM 64.4 °F 59.0 °F 83% 29.99 in 10.0 mi South 15.0 mph 21.9 mph N/A   Mostly Cloudy
3:35 AM 64.4 °F 59.0 °F 83% 29.99 in 10.0 mi South 11.5 mph 20.7 mph N/A   Scattered Clouds
3:55 AM 64.4 °F 59.0 °F 83% 29.99 in 10.0 mi South 12.7 mph 17.3 mph N/A   Scattered Clouds
4:15 AM 62.6 °F 59.0 °F 88% 29.98 in 10.0 mi South 10.4 mph - N/A   Clear
4:55 AM 62.6 °F 59.0 °F 88% 29.99 in 10.0 mi South 11.5 mph - N/A   Clear
5:15 AM 62.6 °F 59.0 °F 88% 29.99 in 10.0 mi South 11.5 mph - N/A   Clear
5:35 AM 62.6 °F 57.2 °F 82% 29.98 in 10.0 mi South 11.5 mph - N/A   Clear
6:15 AM 62.6 °F 57.2 °F 82% 29.98 in 10.0 mi South 10.4 mph 17.3 mph N/A   Clear
6:35 AM 62.6 °F 57.2 °F 82% 29.98 in 10.0 mi South 11.5 mph 17.3 mph N/A   Clear
6:55 AM 62.6 °F 57.2 °F 82% 29.98 in 10.0 mi South 12.7 mph - N/A   Clear
7:15 AM 62.6 °F 57.2 °F 82% 29.99 in 10.0 mi South 11.5 mph - N/A   Clear
7:35 AM 62.6 °F 59.0 °F 88% 29.99 in 10.0 mi South 10.4 mph - N/A   Clear
8:15 AM 64.4 °F 59.0 °F 83% 30.01 in 10.0 mi South 11.5 mph - N/A   Clear
8:35 AM 66.2 °F 59.0 °F 78% 30.01 in 10.0 mi South 11.5 mph - N/A   Scattered Clouds
8:55 AM 68.0 °F 59.0 °F 73% 30.02 in 10.0 mi South 13.8 mph 24.2 mph N/A   Scattered Clouds
9:15 AM 68.0 °F 59.0 °F 73% 30.02 in 10.0 mi South 15.0 mph 21.9 mph N/A   Mostly Cloudy
9:35 AM 69.8 °F 59.0 °F 68% 30.02 in 10.0 mi South 20.7 mph 28.8 mph N/A   Scattered Clouds
9:55 AM 71.6 °F 59.0 °F 64% 30.03 in 10.0 mi South 20.7 mph 27.6 mph N/A   Mostly Cloudy
10:15 AM 73.4 °F 59.0 °F 61% 30.03 in 10.0 mi SW 18.4 mph 24.2 mph N/A   Mostly Cloudy
10:35 AM 73.4 °F 57.2 °F 57% 30.02 in 10.0 mi South 19.6 mph 29.9 mph N/A   Scattered Clouds
10:55 AM 73.4 °F 55.4 °F 53% 30.02 in 10.0 mi SSW 19.6 mph 32.2 mph N/A   Clear
11:15 AM 77.0 °F 53.6 °F 44% 30.02 in 10.0 mi SSW 19.6 mph 29.9 mph N/A   Clear
11:35 AM 77.0 °F 53.6 °F 44% 30.00 in 10.0 mi SSW 19.6 mph 31.1 mph N/A   Clear
11:55 AM 78.8 °F 53.6 °F 42% 30.00 in 10.0 mi SSW 20.7 mph 26.5 mph N/A   Clear
12:15 PM 78.8 °F 53.6 °F 42% 29.99 in 10.0 mi SSW 20.7 mph 28.8 mph N/A   Clear
12:35 PM 78.8 °F 53.6 °F 42% 29.98 in 10.0 mi SSW 18.4 mph 27.6 mph N/A   Clear
12:55 PM 78.8 °F 53.6 °F 42% 29.96 in 10.0 mi South 20.7 mph 32.2 mph N/A   Clear
1:15 PM 80.6 °F 51.8 °F 37% 29.95 in 10.0 mi South 24.2 mph 32.2 mph N/A   Clear
1:35 PM 80.6 °F 51.8 °F 37% 29.94 in 10.0 mi South 20.7 mph 32.2 mph N/A   Clear
1:55 PM 80.6 °F 50.0 °F 34% 29.93 in 10.0 mi SSW 24.2 mph 31.1 mph N/A   Clear
2:15 PM 80.6 °F 50.0 °F 34% 29.93 in 10.0 mi SSW 23.0 mph 33.4 mph N/A   Clear
2:35 PM 82.4 °F 50.0 °F 32% 29.93 in 10.0 mi South 15.0 mph 25.3 mph N/A   Clear
2:55 PM 82.4 °F 48.2 °F 30% 29.92 in 10.0 mi South 19.6 mph 26.5 mph N/A   Clear
3:15 PM 82.4 °F 48.2 °F 30% 29.92 in 10.0 mi SSW 15.0 mph 24.2 mph N/A   Clear
3:35 PM 80.6 °F 50.0 °F 34% 29.92 in 10.0 mi South 19.6 mph 26.5 mph N/A   Clear
3:55 PM 80.6 °F 48.2 °F 32% 29.92 in 10.0 mi South 19.6 mph 27.6 mph N/A   Clear
4:15 PM 80.6 °F 50.0 °F 34% 29.92 in 10.0 mi South 17.3 mph 29.9 mph N/A   Clear
4:35 PM 80.6 °F 48.2 °F 32% 29.92 in 10.0 mi South 17.3 mph 25.3 mph N/A   Clear
4:55 PM 78.8 °F 48.2 °F 34% 29.92 in 10.0 mi South 19.6 mph 26.5 mph N/A   Clear
5:15 PM 78.8 °F 50.0 °F 36% 29.92 in 10.0 mi South 18.4 mph 26.5 mph N/A   Clear
5:35 PM 77.0 °F 50.0 °F 39% 29.92 in 10.0 mi South 13.8 mph 21.9 mph N/A   Clear
5:55 PM 73.4 °F 51.8 °F 47% 29.93 in 10.0 mi South 11.5 mph - N/A   Clear
6:15 PM 73.4 °F 51.8 °F 47% 29.94 in 10.0 mi SSE 8.1 mph - N/A   Clear
6:35 PM 73.4 °F 53.6 °F 50% 29.94 in 10.0 mi SSE 10.4 mph 17.3 mph N/A   Clear
6:55 PM 71.6 °F 53.6 °F 53% 29.95 in 10.0 mi South 10.4 mph 16.1 mph N/A   Clear
7:15 PM 71.6 °F 53.6 °F 53% 29.95 in 10.0 mi South 10.4 mph - N/A   Clear
7:35 PM 71.6 °F 53.6 °F 53% 29.95 in 10.0 mi South 11.5 mph 20.7 mph N/A   Clear
7:55 PM 71.6 °F 53.6 °F 53% 29.96 in 10.0 mi South 10.4 mph 18.4 mph N/A   Clear
8:15 PM 71.6 °F 53.6 °F 53% 29.96 in 10.0 mi South 9.2 mph - N/A   Clear
8:35 PM 69.8 °F 53.6 °F 56% 29.97 in 10.0 mi South 8.1 mph - N/A   Clear
8:55 PM 69.8 °F 53.6 °F 56% 29.97 in 10.0 mi South 9.2 mph - N/A   Clear
9:15 PM 69.8 °F 53.6 °F 56% 29.97 in 10.0 mi SSE 10.4 mph - N/A   Clear
9:35 PM 69.8 °F 53.6 °F 56% 29.98 in 10.0 mi South 9.2 mph - N/A   Clear
9:55 PM 69.8 °F 53.6 °F 56% 29.98 in 10.0 mi SSE 11.5 mph - N/A   Clear
10:15 PM 69.8 °F 53.6 °F 56% 29.99 in 10.0 mi South 13.8 mph 21.9 mph N/A   Clear
10:35 PM 69.8 °F 53.6 °F 56% 29.99 in 10.0 mi South 11.5 mph 17.3 mph N/A   Clear
10:55 PM 69.8 °F 53.6 °F 56% 29.99 in 10.0 mi South 12.7 mph 19.6 mph N/A   Clear
11:15 PM 68.0 °F 53.6 °F 60% 29.98 in 10.0 mi South 15.0 mph 21.9 mph N/A   Clear
11:35 PM 68.0 °F 53.6 °F 60% 29.99 in 10.0 mi South 11.5 mph 17.3 mph N/A   Clear
11:55 PM 68.0 °F 53.6 °F 60% 29.99 in 10.0 mi South 13.8 mph 20.7 mph N/A   Clear